Keene, CA (93531)

5:54 PM PDT on March 27, 2017 (GMT -0700)
Deer Creek, Hart Flat, CA, US | | Change Station
Active Advisory: High Wind Warning Active Notice: Public Information Statement

Elev 2854 ft 35.25 °N, 118.61 °W | Updated 2 seconds ago

Partly Cloudy
Partly Cloudy
50.5 °F
Feels Like 50.5 °F
N
9.0
Wind Variable Wind from WNW
Gusts 14.0 mph

Today
High -- | Low -- °F
--% Chance of Precip.
Yesterday
High -- | Low -- °F
Precip. -- in
Pressure 30.06 in
Visibility 10.0 miles
Clouds Mostly Cloudy 2900 ft
Overcast 3900 ft
Dew Point 38 °F
Humidity 63%
Rainfall 0.00 in
Snow Depth Not available.
6:47 AM 7:11 PM
Waning Crescent, 0% visible
METAR KTSP 280035Z AUTO 29021G31KT 10SM BKN029 OVC039 08/00 A3006 RMK AO2
Pressure 30.06 in
Visibility 10.0 miles
Clouds Mostly Cloudy 2900 ft
Overcast 3900 ft
Dew Point 38 °F
Humidity 63%
Rainfall 0.00 in
Snow Depth Not available.
6:47 AM 7:11 PM
Waning Crescent, 0% visible
METAR KTSP 280035Z AUTO 29021G31KT 10SM BKN029 OVC039 08/00 A3006 RMK AO2

Get Your Daily Forecast Email!

Thanks for signing up!

Be on the lookout for a verification email in your inbox.

You'll start receiving severe weather alerts in your inbox..

×

10-Day Weather Forecast

Almanac

Astronomy

Mar. 27, 2017 Rise Set
Actual Time
Civil Twilight
Nautical Twilight
Astronomical Twilight
Moon
Length of Visible Light
Length of Day
Tomorrow will be .
, % of the Moon is Illuminated

Today's Extremes

State Highs State Lows

Community

WunderPhotos

Upload Photos

1,962,540 photos uploaded!

WunderBlog® & News

Nearby

Air Quality

  Air Quality AQ Index Pollutant
Not available.

Snow Depth

Station Depth Elevation

Earthquake Activity

City Distance Mag. Time & Date
Minimum magnitude displayed is 2.5.

Earthquake Activity

City Distance Mag. Time & Date
Minimum magnitude displayed is 2.5.

Coastal Water Temperatures

Place Temperature

Stations

Nearby Weather Stations

Station Location Temp. Windchill Dew Point Humidity Wind Precip. Elev Updated Type
                   

Watches & Warnings

High Wind Warning
Issued: 11:37 AM PDT Mar. 27, 2017 – National Weather Service

... High Wind Warning remains in effect until 11 PM PDT this
evening...

* winds... northwest 30 to 40 mph with gusts up to 60 mph. A few
of the typically windy locations will experience wind gusts to
75 mph.

* Timing... through 11 PM. The strongest winds will occur late this afternoon
into the early evening hours.

* Impacts... damaging winds will blow down trees and power lines.
Widespread power outages are expected. Travel will be
difficult, especially for high profile vehicles.

Precautionary/preparedness actions...

A High Wind Warning means a hazardous high wind event is expected
or occurring. Sustained wind speeds of at least 40 mph or gusts
of 58 mph or more can lead to property damage.